Location: Unspecified
(0.0000°N, 0.0000°E)
Time: 14:10:30
(UTC+02:00)

Cosmos 2263 Rocket - Visible Passes

Search period start: 26 July 2016 00:00
Search period end: 05 August 2016 00:00
Orbit: 824 x 848 km, 71.0° (Epoch: 25 July)

Date Brightness Start Highest point End Pass type
(mag) Time Alt. Az. Time Alt. Az. Time Alt. Az.
26 Jul 5.4 06:56:16 10° NE 06:59:20 15° ENE 07:02:23 10° ESE visible
27 Jul 5.4 06:40:08 10° NE 06:42:39 13° ENE 06:45:09 10° ESE visible
27 Jul 5.9 21:08:44 10° W 21:09:52 11° WNW 21:11:00 10° WNW visible
28 Jul 5.5 06:24:12 10° NE 06:25:57 11° ENE 06:27:43 10° E visible
28 Jul 5.7 20:51:00 10° W 20:53:11 12° WNW 20:55:21 10° NW visible
29 Jul 5.6 20:33:41 10° WSW 20:36:29 14° WNW 20:39:18 10° NW visible
30 Jul 2.2 07:30:49 10° NNW 07:36:14 56° WSW 07:41:41 10° S visible
31 Jul 2.1 07:14:05 10° NNW 07:19:33 64° WSW 07:25:03 10° S visible
01 Aug 2.0 06:57:21 10° NNW 07:02:52 72° WSW 07:08:24 10° S visible
02 Aug 2.0 06:40:39 10° NNW 06:46:11 81° WSW 06:51:46 10° SSE visible
03 Aug 2.0 06:23:58 10° NNW 06:29:30 90° W 06:35:05 10° SSE visible
04 Aug 2.1 06:07:17 10° NNW 06:12:50 81° ENE 06:18:24 10° SSE visible
